Regional Weather Roundup
Issued by NWS

Home | Current Version | Previous Version | Text Only | Print | Product List | Glossary On
Versions: 1 2 3 4 5 6 7 8 9 10 11 12 13 14 15 16 17 18 19 20 21 22 23 24 25 26 27 28 29 30 31 32 33 34 35 36 37 38 39 40 41 42 43 44 45 46 47 48 49 50
000
ASUS42 KTBW 010510
RWRFL
FLORIDA REGIONAL WEATHER ROUNDUP
NATIONAL WEATHER SERVICE TAMPA BAY RUSKIN FL
1200 AM EST SUN FEB 01 2015

NOTE: "FAIR" INDICATES FEW OR NO CLOUDS BELOW 12,000 FEET WITH NO
SIGNIFICANT WEATHER AND/OR OBSTRUCTIONS TO VISIBILITY.


FLZ001>010-012>015-112-114-115-010600-
PANHANDLE FLORIDA

CITY           SKY/WX    TMP DP  RH WIND       PRES   REMARKS
PENSACOLA      MOCLDY    51  43  74 E7        30.19F
PENSACOLA NAS  MOCLDY    60  44  55 SE16      30.18F
MILTON NAS     CLOUDY    47  38  71 E5        30.20F WCI  45
CRESTVIEW      MOCLDY    40  38  93 NE5       30.22F WCI  37
DUKE FIELD     FAIR      42  37  83 E1        30.20F
VALPARAISO     MOCLDY    50  40  68 E2        30.20F
MARY ESTHER    CLOUDY    50  40  70 NE6       30.19F
TRI COUNTY     FAIR      40  37  89 CALM      30.24F
PANAMA CITY    FAIR      48  36  63 NE6       30.21F
TYNDALL AFB    PTCLDY    51  39  64 E6        30.22F
APALACHICOLA   PTCLDY    54  41  61 E8        30.23S

STATION/POSITION SKY/WX   TEMP    WIND        PRES    WAVE   SWELL
                          AIR SEA DIR/SP/G            HT/PER HT/PER
                          (F)     (DEG/KT/KT) (MB)    (FT/S) (FT/S)
30.1N   87.6W              61 62  110/ 16/ 19 1021.2F   4/ 5
29.2N   88.2W              65 69  140/ 17/ 21 1021.5    5/ 6
28.7N   86.0W              66 69  140/ 17/ 21 1022.2F   5/ 6
PANAMA CITY BEAC           55 60   80/ 12/ 15 1022.7F
CAPE SAN BLAS    NOT AVBL
TOWER C                    61     100/ 20/ 21 1023.2F
28.5N   84.5W              65 67  110/ 17/ 21 1022.8S   3/ 4

$$
FLZ011-016>038-118-127-128-134-139-239-010600-
NORTH FLORIDA

CITY           SKY/WX    TMP DP  RH WIND       PRES   REMARKS
MARIANNA       PTCLDY    42  36  79 CALM      30.24S
TALLAHASSEE    PTCLDY    48  36  63 E8        30.26S WCI  44
PERRY          CLEAR     49  42  77 E3        30.28S
CROSS CITY       N/A     49  42  77 CALM      30.27F
LAKE CITY      FAIR      45  41  87 E5        30.29S WCI  42
GAINESVILLE    CLEAR     46  41  82 CALM      30.29F
MAYPORT NAS    CLEAR     54  47  77 NE9       30.30F
JACKSONVILLE   MOCLDY    40  39  97 NE5       30.30F WCI  37
JAX NAS        PTCLDY    53  45  74 NE6       30.30F
JAX CRAIG      CLEAR     45  42  89 CALM      30.30F
JAX CECIL      CLEAR     39  37  93 CALM      30.30F
FERNANDINA BEA FAIR      54  48  82 CALM      30.29F
ST AUGUSTINE   CLEAR     48  46  93 CALM      30.30F

STATION/POSITION SKY/WX   TEMP    WIND        PRES    WAVE   SWELL
                          AIR SEA DIR/SP/G            HT/PER HT/PER
                          (F)     (DEG/KT/KT) (MB)    (FT/S) (FT/S)
SHELL POINT                54      70/  5/ 10   N/A
KEATON BEACH               51      70/ 11/ 13 1024.9F
CEDAR KEY                  53      90/ 14/ 16 1025.0F
FERNANDINA                 52 55   70/  5/  8 1025.6F
30.7N   81.3W                 56                N/A     3/ 8
MAYPORT                    56 57   50/  8/ 10 1025.9F
31.4N   80.9W              54 53   90/  8/ 10 1026.9F   3/ 7   3/ 7
ST AUGUSTINE               52     340/  5/  6 1026.0F

$$
FLZ040-043>046-052-053-057-058-063-144-010600-
INTERIOR CENTRAL FLORIDA

CITY           SKY/WX    TMP DP  RH WIND       PRES   REMARKS
OCALA          PTCLDY    46  41  81 CALM      30.28F
THE VILLAGES     N/A     50  46  87 NE3       30.18F
LEESBURG       PTCLDY    51  47  86 NE5       30.29S
SANFORD        MOCLDY    53  48  83 CALM      30.27F
ORLANDO EXEC   CLEAR     53  47  79 CALM      30.27F
ORLANDO INTL   CLOUDY    54  50  86 E5        30.27F
WINTER HAVEN   PTCLDY    54  49  83 E6        30.27F
LAKELAND       PTCLDY    54  48  82 E7        30.26F
BARTOW         FAIR      54  46  76 NE6       30.27F
OKEECHOBEE     MOCLDY    50  46  87 CALM      30.26R

$$
FLZ041-047-054-059-064-141-147-010600-
EAST CENTRAL FLORIDA

CITY           SKY/WX    TMP DP  RH WIND       PRES   REMARKS
DAYTONA BEACH  PTCLDY    50  47  89 CALM      30.28F
DELAND         CLEAR    N/A N/A N/A CALM      30.28F
JFK SPACE CTR  PTCLDY    50  47  92 CALM      30.26F
CAPE CANAVERAL PTCLDY    58  50  73 E6        30.26F
PATRICK AFB    PTCLDY    62  53  71 E9        30.25F
MELBOURNE      PTCLDY    62  52  69 E7        30.26F
VERO BEACH     MOCLDY    64  49  57 E7        30.25F
FT PIERCE      MOCLDY    63  49  60 E6        30.24F
STUART         CLOUDY    64  48  55 E10G18    30.25S

STATION/POSITION SKY/WX   TEMP    WIND        PRES    WAVE   SWELL
                          AIR SEA DIR/SP/G            HT/PER HT/PER
                          (F)     (DEG/KT/KT) (MB)    (FT/S) (FT/S)
28.5N   80.2W              65 69   90/ 12/ 14 1025.3F
28.9N   78.5W              63 73   60/ 10/ 16 1026.3F   6/ 9   5/ 9
TRIDENT PIER               61 63   50/  6/  8 1025.2F
28.4N   80.5W                 62                N/A     2/ 8
27.6N   80.2W                 65                N/A     4/ 9   2/11

$$
FLZ050-056-061-142-242-148-248-149-249-151-251-155-255-
160-260-010600-
WEST CENTRAL FLORIDA

CITY           SKY/WX    TMP DP  RH WIND       PRES   REMARKS
CRYSTAL RIVER  FAIR      50  45  81 E6        30.27S
INVERNESS      FAIR      50  45  81 CALM      30.28S
BROOKSVILLE    PTCLDY    53  48  83 NE6       30.26F
ZEPHYRHILLS    FAIR      52  46  82 E5        30.27F
CLEARWATER     MOCLDY    59  51  75 E8        30.24F
TAMPA INTL     MOCLDY    59  47  64 E8        30.25F
TAMPA EXEC     PTCLDY    55  48  76 E5        30.26S
PLANT CITY       N/A    N/A N/A N/A MISG        N/A
MACDILL AFB    MOCLDY    58  52  80 E13       30.25S
PETER O KNIGHT MOCLDY    59  52  77 E9        30.25S
ST PETERSBURG  MOCLDY    60  51  72 SE14      30.24S
SARASOTA       MOCLDY    58  49  72 E10       30.22F
VENICE         FAIR      57  50  77 E10       30.24F

STATION/POSITION SKY/WX   TEMP    WIND        PRES    WAVE   SWELL
                          AIR SEA DIR/SP/G            HT/PER HT/PER
                          (F)     (DEG/KT/KT) (MB)    (FT/S) (FT/S)
CEDAR KEY                  53      90/ 14/ 16 1025.0F
28.5N   84.5W              65 67  110/ 17/ 21 1022.8S   3/ 4
27.3N   84.3W                 71                N/A     4/ 5
CLEARWATER BEACH           60 60   90/  8/ 13 1023.6F
MIDDLE TAMPA BAY           59     120/ 13/ 15 1024.1S
VENICE                     59 63   90/  9/ 11 1023.4F

$$
FLZ066-069-070-075>078-162-262-165-265-010600-
SOUTHWEST FLORIDA AND KEYS

CITY           SKY/WX    TMP DP  RH WIND       PRES   REMARKS
PUNTA GORDA    MOCLDY    50  47  89 E7        30.25F
FT MYERS       PTCLDY    57  51  80 E6        30.22F
SOUTHWEST INTL PTCLDY    55  50  83 E6        30.23F
NAPLES         CLEAR     57  51  80 NE8       30.21F
MARCO ISLAND   CLEAR     55  48  76 E7        30.21F
IMMOKALEE      CLEAR     48  48 100 CALM      30.25F
MARATHON       PTCLDY    69  55  60 E8        30.19F
KEY WEST NAS   CLEAR     65  59  81 NE9       30.18F
KEY WEST INTL  CLEAR     66  60  81 NE8       30.18F

STATION/POSITION SKY/WX   TEMP    WIND        PRES    WAVE   SWELL
                          AIR SEA DIR/SP/G            HT/PER HT/PER
                          (F)     (DEG/KT/KT) (MB)    (FT/S) (FT/S)
VENICE                     59 63   90/  9/ 11 1023.4F
NAPLES                     60      70/  5/  8 1023.7F
26.0N   85.6W              71 72  120/ 17/ 21 1020.9F   5/ 7
DRY TORTUGAS               70      90/ 24/ 28 1021.5S
NW FL BAY                  65      60/ 11/ 13 1023.2R
SAND KEY                   68      60/ 17/ 19 1021.7F
SOMBRERO KEY               71      90/ 22/ 25 1022.0F
LONG KEY                   69 66  100/ 16/ 18 1023.2F
MOLASSES REEF              69 75   80/ 18/ 20 1022.5F

$$
FLZ067-068-071>074-168-172>174-010600-
SOUTHEAST FLORIDA

CITY           SKY/WX    TMP DP  RH WIND       PRES   REMARKS
W PALM BEACH   MOCLDY    67  48  50 E13       30.23F
FT LAUDER-EXEC PTCLDY    67  48  50 E16G22    30.23S
FT LAUDERDALE  PTCLDY    66  51  58 E14G21    30.22F
POMPANO BEACH  PTCLDY    69  48  47 E13G21    30.23F
PEMBROKE PINES PTCLDY    66  52  60 E13       30.23F
OPA LOCKA      CLOUDY    68  53  58 E13       30.22F
MIAMI          CLOUDY    68  55  63 E12       30.22F
WEST KENDALL   PTCLDY    67  52  58 E10       30.22F
HOMESTEAD      PTCLDY    67  52  58 E13       30.21F

STATION/POSITION SKY/WX   TEMP    WIND        PRES    WAVE   SWELL
                          AIR SEA DIR/SP/G            HT/PER HT/PER
                          (F)     (DEG/KT/KT) (MB)    (FT/S) (FT/S)
PORT EVERGLADES            68      70/ 12/ 17 1023.1
VIRGINIA KEY               69 70  110/ 18/ 21 1023.4F
LAKE WORTH                 67 73   70/ 17/ 20 1023.4F
SETTLEMENT POINT           64      90/ 15/ 18 1024.8F

$$



USA.gov is the U.S. government's official web portal to all federal, state and local government web resources and services.